Content
SEND FEEDBACK

Daily
Averages
Monthly
Summary
United States of America

CHESTERFIELD, MISSOURI


Home > North America > United States > Missouri
Elevation: 559 feet     Latitude: 38 41N     Longitude: 090 31W

WEATHER
 
SELECT A DAY
Number of Records: 203,490;   Date Range: 1/1/95 - 8/12/14
 
SHARE

PRINT THIS DATA

[ ← Previous Day ]
WEATHER ALMANAC - JANUARY 21, 2013
[ Next Day → ]
[ °C ]   °F
Weather ElementAverageHighLow
Temperature20.5 °F26.1 °F (12:51 pm)15.1 °F (11:51 pm)
Dewpoint2.1 °F10.9 °F (1:51 am)-5.1 °F (1:51 pm)
Humidity46.4 %68 % (4:05 am)28 % (1:51 pm)
Barometer30.39 in30.44 in (10:51 pm)30.33 in (3:42 am)
Wind Speed13 mph20.7 mph (3:51 am)
Wind Gust31.1 mph (3:51 am)
Weather ElementAverage
Visibility10 mi
Wind DirectionWNW (307.6 °)

Weather ElementTotal
Precipitation---
Heating Degree Days44.4 (Base 65)
Averaged from 25 records on January 21, 2013
WEATHER CONDITIONS BREAKOUT
WIND DIRECTION BREAKOUT
WEATHER BY HOUR - JANUARY 21, 2013
[ °C ]   °F
Local TimeTemperatureDewpointHumidityBarometerVisibilityWind DirectionWind SpeedGust SpeedPrecipitationEventsConditions
1:51 AM23.0 °F10.9 °F60 %30.35 in10.0 miNW (310°)9.2 mphMostly Cloudy
2:51 AM21.9 °F10.9 °F63 %30.35 in10.0 miNW (310°)9.2 mphMostly Cloudy
3:42 AM21.2 °F10.4 °F63 %30.33 in10.0 miNNW (330°)17.3 mph24.2 mphMostly Cloudy
3:51 AM21.0 °F10.0 °F63 %30.37 in10.0 miNW (320°)20.7 mph31.1 mph0.00 inSnowLight Snow
4:05 AM19.4 °F10.4 °F68 %30.33 in10.0 miNW (320°)11.5 mph23.0 mph0.00 inSnowLight Snow
4:51 AM19.9 °F10.0 °F65 %30.37 in10.0 miWNW (300°)6.9 mph0.00 inScattered Clouds
5:51 AM19.9 °F9.0 °F62 %30.37 in10.0 miWNW (290°)10.4 mphMostly Cloudy
6:51 AM19.9 °F5.0 °F52 %30.38 in10.0 miWNW (300°)15.0 mph24.2 mphMostly Cloudy
7:51 AM19.9 °F3.0 °F48 %30.38 in10.0 miWNW (300°)10.4 mphMostly Cloudy
8:51 AM21.9 °F3.9 °F46 %30.39 in10.0 miWNW (300°)15.0 mph24.2 mphScattered Clouds
9:51 AM23.0 °F3.0 °F42 %30.39 in10.0 miWNW (290°)17.3 mph31.1 mphScattered Clouds
10:51 AM25.0 °F1.0 °F36 %30.39 in10.0 miWNW (300°)17.3 mph27.6 mphScattered Clouds
11:51 AM25.0 °F-2.0 °F31 %30.37 in10.0 miNW (310°)20.7 mph28.8 mphScattered Clouds
12:51 PM26.1 °F-2.0 °F30 %30.36 in10.0 miWNW (300°)16.1 mph27.6 mphScattered Clouds
1:51 PM24.1 °F-5.1 °F28 %30.38 in10.0 miWNW (290°)17.3 mph25.3 mphMostly Cloudy
2:51 PM21.9 °F-2.0 °F35 %30.39 in10.0 miNW (320°)13.8 mph21.9 mphMostly Cloudy
3:51 PM19.9 °F-4.0 °F35 %30.41 in10.0 miNW (320°)12.7 mph21.9 mphMostly Cloudy
4:51 PM19.0 °F-2.0 °F40 %30.41 in10.0 miWest (280°)16.1 mphMostly Cloudy
5:51 PM19.0 °F-2.9 °F38 %30.42 in10.0 miWNW (300°)9.2 mphOvercast
6:51 PM18.0 °F-2.9 °F40 %30.43 in10.0 miNW (320°)12.7 mphOvercast
7:51 PM17.6 °F-2.2 °F42 %30.37 in10.0 miNW (320°)9.2 mphMostly Cloudy
8:51 PM17.1 °F-2.9 °F41 %30.43 in10.0 miNNW (330°)10.4 mphMostly Cloudy
9:51 PM16.0 °F-2.9 °F43 %30.43 in10.0 miNW (320°)10.4 mphMostly Cloudy
10:51 PM17.1 °F-2.9 °F41 %30.44 in10.0 miNW (310°)10.4 mphMostly Cloudy
11:51 PM15.1 °F-2.0 °F47 %30.44 in10.0 miWNW (300°)6.9 mphPartly Cloudy
Hourly data recorded from KSTL, located miles away from Chesterfield, Missouri







STORIES FROM OUR PARTNERS